Weather in Trinidad

Trinidad and Tobago     10°22′26″N   61°15′42″W
temp.,
°C
wind,
m/s
gust,
m/s
humid.,
%
clouds,
%
prec.,
mm/h
press.,
hPa
HPBL,
m
1 march, mon
mon123:00+21nne17950 0.4 1013252
02:00+20nne17950 0.6 1011254
05:00+20nne14970 0.1 1011138
08:00+23ne38810 0.1 1012770
11:00+27ne47600 0.4 10131285
14:00+29ne46530 0.6 10101505
17:00+26ne47670 0.1 10101111
20:00+21nne29920 0.2 1011378
2 march, tue
tue223:00+21nne29950 0.1 1013318
02:00+20nne12970 0.6 101191
05:00+20nne29970 0.1 1011284
08:00+23ne38830 0.1 1013756
11:00+28ene466138 0.3 10141195
14:00+28ene466234 1.1 10111114
17:00+26ne466830 0.1 1011954
20:00+22ne299141 0.1 1013347
3 march, wed
wed323:00+21ne299653 0.0 1014351
02:00+21ne289659 0.1 1013308
05:00+22ne279282 0.1 1012350
08:00+25ene377550 0.3 10151006
11:00+25ene377752 0.8 1015777
14:00+29ene465960 1.4 10131375
17:00+27ene36673 0.1 10121173
20:00+22ene29922 0.1 1013322
4 march, thu
thu423:00+22ene29950 0.0 1014369
02:00+22ene179729 0.0 1013244
05:00+22ne299776 0.3 1013331
08:00+24e388972 5.6 1015631
11:00+26e368386 5.7 1015828
14:00+27e358371 11.0 1012978
17:00+24e289377 5.4 1011694
20:00+23ene299780 7.4 1013483
5 march, fri
fri523:00+23e2109768 0.7 1014482
02:00+23ene299783 0.9 1012468
05:00+23e299697 0.6 1011453
08:00+23e299398 0.6 1013493
11:00+28e477784 1.1 1014897
14:00+28e477583 3.2 10111099
17:00+26e3875100 0.2 1010955
20:00+23ene299496 0.2 1011539